Temperature
14 14 14 13 13 13 12 12 10 9 7 6 4 2 2 1 1 1 0 -0 -1 -2 -2 -3 -3 -4 -6 -6 -8 -8 -9 -10 -10 -9 -8 -8 -8 -8 -9 -9 -9 -9 -9
13 13 13 13 13 12 12 11 10 8 6 4 3 1 0 0 0 0 -0 -1 -1 -2 -2 -3 -3 -4 -5 -6 -7 -8 -9 -9 -10 -10 -9 -9 -9 -9 -9 -9 -9 -9 -9
13 13 13 12 12 12 11 10 9 7 6 4 3 2 1 0 -0 -0 -0 -1 -2 -2 -2 -3 -3 -5 -5 -6 -7 -8 -9 -9 -10 -9 -9 -9 -9 -9 -9 -9 -9 -9 -9
12 12 12 12 11 10 10 9 8 6 5 3 2 1 0 -1 -1 -1 -1 -2 -2 -2 -3 -3 -4 -4 -5 -6 -7 -8 -9 -9 -9 -9 -9 -9 -8 -8 -8 -9 -9 -9 -9
11 11 11 10 10 10 9 8 7 6 5 3 1 0 -1 -2 -2 -2 -2 -2 -3 -3 -3 -3 -4 -4 -5 -6 -7 -7 -8 -8 -8 -8 -8 -8 -8 -8 -8 -8 -9 -9 -9
10 10 10 10 9 9 8 8 7 6 4 3 1 -0 -2 -3 -3 -3 -3 -3 -3 -3 -3 -3 -4 -4 -5 -6 -7 -8 -8 -8 -8 -8 -8 -8 -8 -8 -8 -9 -9 -9 -9
9 9 9 9 9 8 8 7 6 5 3 2 1 -1 -2 -3 -4 -4 -4 -4 -3 -3 -4 -4 -4 -4 -5 -6 -6 -8 -8 -8 -8 -8 -8 -8 -8 -8 -9 -9 -9 -9 -9
8 8 8 8 7 7 6 6 5 4 3 1 -0 -2 -3 -4 -5 -5 -5 -4 -4 -4 -4 -4 -5 -5 -5 -6 -7 -8 -8 -8 -8 -8 -8 -9 -9 -9 -9 -9 -9 -10 -10
7 7 7 7 6 6 5 5 4 3 2 1 -1 -2 -4 -4 -5 -5 -5 -5 -5 -4 -4 -5 -5 -5 -5 -7 -8 -8 -8 -8 -8 -8 -8 -8 -9 -9 -9 -10 -10 -11 -11
5 5 6 5 5 4 4 4 3 2 1 -1 -2 -3 -4 -5 -5 -5 -5 -5 -5 -5 -5 -5 -5 -5 -6 -7 -8 -8 -8 -8 -8 -8 -9 -9 -9 -10 -10 -11 -11 -12 -12
4 4 4 4 4 3 3 3 2 0 -1 -2 -3 -4 -5 -5 -5 -5 -5 -5 -5 -5 -5 -5 -5 -5 -6 -7 -8 -8 -8 -8 -8 -9 -9 -9 -10 -10 -11 -11 -12 -12 -12
3 3 3 3 3 2 2 2 1 -1 -2 -3 -5 -6 -6 -6 -6 -5 -6 -5 -5 -5 -5 -5 -5 -5 -6 -7 -8 -8 -8 -9 -9 -9 -10 -10 -10 -10 -11 -11 -12 -12 -12
2 2 2 2 2 1 1 1 -1 -2 -3 -4 -6 -6 -7 -6 -6 -5 -5 -5 -5 -5 -5 -5 -6 -6 -7 -8 -8 -8 -9 -9 -9 -10 -10 -10 -10 -11 -11 -12 -12 -12 -12
1 1 1 1 1 1 0 -0 -1 -2 -3 -4 -6 -6 -7 -7 -6 -5 -5 -5 -5 -6 -6 -6 -7 -7 -7 -7 -8 -8 -8 -9 -10 -10 -10 -11 -11 -11 -11 -12 -12 -12 -12
0 0 -0 -0 -0 -0 -0 -1 -1 -2 -4 -5 -6 -6 -7 -7 -6 -5 -5 -5 -5 -5 -6 -6 -7 -7 -7 -8 -8 -8 -9 -9 -10 -10 -11 -11 -11 -11 -11 -12 -12 -12 -12
-1 -1 -1 -1 -1 -1 -1 -1 -1 -2 -3 -5 -6 -7 -7 -7 -7 -6 -5 -5 -5 -5 -6 -6 -6 -7 -7 -8 -8 -8 -9 -9 -10 -10 -11 -11 -11 -11 -11 -12 -12 -12 -12
-1 -1 -1 -1 -1 -1 -1 -2 -2 -3 -4 -5 -6 -7 -7 -7 -7 -7 -6 -6 -6 -6 -7 -7 -7 -7 -7 -8 -8 -8 -9 -9 -10 -10 -10 -11 -11 -11 -11 -12 -12 -12 -12
-1 -1 -2 -2 -2 -2 -2 -2 -3 -4 -5 -5 -6 -6 -7 -7 -7 -7 -6 -6 -7 -7 -7 -7 -7 -7 -7 -8 -8 -8 -9 -9 -10 -10 -10 -11 -11 -11 -11 -12 -12 -12 -12
-2 -2 -2 -2 -2 -2 -2 -3 -3 -4 -5 -6 -7 -7 -7 -7 -7 -7 -6 -6 -6 -6 -6 -6 -7 -7 -7 -8 -8 -8 -9 -9 -9 -10 -10 -11 -11 -11 -11 -11 -12 -12 -12
-2 -2 -2 -2 -2 -2 -3 -3 -3 -4 -6 -7 -7 -7 -7 -7 -7 -7 -6 -6 -6 -6 -6 -6 -6 -7 -7 -8 -8 -8 -9 -9 -10 -10 -10 -11 -11 -11 -11 -11 -11 -12 -11
-2 -2 -2 -2 -2 -3 -3 -3 -4 -4 -5 -7 -7 -7 -7 -7 -7 -6 -6 -6 -6 -6 -6 -6 -7 -7 -7 -8 -8 -8 -9 -9 -10 -10 -10 -11 -11 -11 -11 -11 -11 -11 -11
-3 -3 -3 -3 -3 -3 -3 -3 -4 -4 -5 -6 -7 -8 -8 -7 -7 -6 -6 -6 -6 -6 -6 -6 -7 -7 -7 -8 -8 -8 -9 -9 -9 -10 -10 -10 -11 -11 -11 -11 -11 -11 -11
-3 -3 -3 -3 -3 -3 -3 -3 -4 -4 -5 -6 -7 -8 -8 -8 -7 -7 -6 -6 -6 -6 -6 -6 -7 -7 -7 -8 -8 -8 -9 -9 -9 -10 -10 -10 -10 -10 -11 -11 -11 -11 -11
-3 -3 -3 -3 -3 -3 -3 -3 -4 -5 -6 -7 -7 -8 -8 -8 -7 -7 -7 -6 -6 -6 -6 -6 -7 -7 -7 -8 -8 -8 -9 -9 -9 -10 -10 -10 -10 -10 -10 -11 -11 -11 -11
-3 -3 -3 -3 -3 -3 -3 -4 -4 -5 -6 -7 -8 -8 -8 -8 -8 -7 -7 -6 -6 -6 -6 -6 -7 -7 -7 -8 -8 -8 -9 -9 -9 -10 -10 -10 -10 -10 -10 -11 -11 -11 -11
-3 -3 -3 -3 -3 -3 -4 -4 -5 -5 -6 -7 -8 -8 -8 -8 -8 -7 -7 -6 -6 -6 -6 -6 -7 -7 -7 -8 -8 -8 -9 -9 -9 -10 -10 -10 -10 -10 -10 -11 -11 -11 -11
Wind_Speed
13 15 17 18 18 19 20 21 20 19 19 20 20 20 21 22 21 20 19 18 18 17 16 16 17 16 13 13 13 14 14 15 18 20 18 19 21 21 20 22 24 24 25
11 13 15 16 17 18 20 20 19 19 19 19 19 20 21 21 21 21 21 20 19 18 18 17 18 14 17 15 14 16 15 16 18 22 21 19 22 22 22 22 20 21 23
9 12 14 15 17 18 19 18 18 19 19 19 20 21 21 20 21 22 21 20 19 18 17 17 17 17 17 16 16 16 15 15 17 19 21 19 19 19 21 21 22 20 21
9 11 14 15 16 17 17 17 17 18 19 20 21 21 20 19 20 20 19 18 17 17 17 17 17 17 18 18 16 17 17 17 18 18 19 19 19 20 18 18 18 17 18
10 12 13 13 14 14 15 16 17 18 19 19 20 21 21 18 18 19 18 18 18 17 17 17 18 20 22 19 15 16 16 16 16 16 18 18 18 17 16 16 18 18 19
12 13 13 12 13 14 15 15 17 18 18 19 19 20 22 18 25 30 22 18 17 17 17 16 17 20 23 26 28 27 24 19 18 18 18 19 21 20 18 17 18 19 20
13 13 12 12 12 13 14 15 16 17 17 18 19 21 22 23 28 31 31 19 17 17 17 15 14 15 19 15 20 24 24 27 27 21 22 22 22 21 21 22 21 21 21
14 13 12 11 12 13 14 15 16 15 16 17 18 21 21 22 28 30 30 23 18 17 17 17 16 15 15 15 15 16 18 19 20 18 18 20 20 20 19 19 19 20 20
15 14 12 11 12 13 14 15 14 14 16 16 17 19 21 21 27 30 28 17 17 18 17 16 17 16 19 20 16 17 19 16 19 24 25 25 28 28 23 17 17 17 18
16 16 16 14 14 14 15 14 13 13 15 15 16 18 20 20 24 29 29 15 16 15 14 15 19 19 19 19 16 16 17 15 14 16 18 19 18 20 23 16 14 15 16
17 17 16 16 15 14 14 12 12 12 13 14 15 16 17 19 22 27 29 16 15 13 11 11 11 18 19 19 18 15 17 16 15 15 14 14 13 12 12 12 12 13 15
17 17 17 16 14 11 12 11 11 11 12 13 14 14 14 16 19 22 28 26 20 13 11 10 10 15 16 18 15 16 19 18 12 12 13 13 13 13 12 13 14 14 15
17 17 17 16 14 12 11 11 10 10 10 11 11 12 12 11 14 23 25 27 27 16 11 14 14 15 15 13 14 16 15 11 10 11 12 13 12 13 13 13 14 13 15
17 17 16 15 14 12 9 8 9 9 10 10 11 11 11 11 11 12 14 16 20 18 13 14 16 15 11 11 12 10 8 8 9 10 12 12 12 12 12 12 12 11 11
17 15 15 13 13 11 9 9 10 11 11 11 10 10 11 11 14 18 14 12 12 12 10 7 7 7 8 7 7 7 7 7 8 9 10 11 12 12 12 11 11 11 11
14 14 12 11 11 10 9 9 12 15 17 19 19 15 12 15 15 19 21 19 18 17 12 8 8 8 8 7 7 7 7 7 8 9 10 11 11 12 12 12 11 11 11
14 14 12 11 11 10 9 9 9 9 14 18 20 21 20 17 17 18 20 20 19 18 12 9 8 8 7 7 6 7 7 7 8 8 10 10 11 11 12 12 11 11 11
14 14 13 11 11 10 9 9 9 9 8 8 12 19 21 21 19 18 18 17 13 13 10 9 8 8 7 6 6 6 7 7 7 8 9 10 10 11 11 12 11 12 11
13 11 11 11 10 10 9 9 9 9 9 8 7 9 15 18 19 19 18 11 11 10 10 9 8 7 6 6 6 6 7 7 8 9 9 10 10 10 11 11 12 15 13
12 15 14 12 11 10 9 9 8 8 9 8 8 7 7 9 10 12 12 10 10 9 9 8 7 7 6 6 6 6 6 7 8 8 9 9 9 10 11 13 12 12 11
11 12 16 13 10 10 9 9 8 8 8 8 8 8 10 8 9 11 11 10 10 9 9 8 7 6 6 5 5 6 7 7 8 8 9 9 9 10 11 11 11 11 11
11 11 10 11 10 10 9 9 8 8 9 9 8 8 13 10 7 8 9 9 9 8 7 7 6 6 6 5 5 5 6 7 8 8 9 9 9 10 11 11 11 11 11
12 12 12 11 10 12 11 9 9 8 8 8 8 7 7 8 7 8 8 8 7 7 6 6 6 5 5 5 5 5 6 7 8 9 9 10 10 10 10 11 13 13 12
12 13 13 12 11 10 9 9 8 8 8 8 8 7 7 7 7 8 7 7 6 6 6 6 6 7 7 5 5 5 6 8 9 9 9 9 10 10 10 11 12 13 12
13 13 13 12 11 10 9 9 8 8 8 8 7 7 7 7 7 7 7 6 7 7 7 6 5 6 7 7 6 6 9 13 13 9 6 7 9 10 11 12 11 13 12
13 13 12 11 10 9 8 8 7 7 7 7 7 7 7 7 7 7 7 7 7 6 6 6 6 6 5 5 6 8 11 12 12 10 7 7 9 9 11 10 13 12 12
Wind_Direction
236 233 232 234 233 233 235 236 235 233 228 225 221 216 212 207 204 203 207 207 212 218 220 226 233 237 243 247 249 250 252 254 264 276 281 285 285 283 281 278 277 277 277
246 241 240 239 237 237 238 239 236 234 230 226 222 219 215 209 205 204 206 207 211 217 221 225 232 234 240 246 249 252 254 255 261 273 280 283 283 282 281 280 278 276 275
256 247 246 243 241 241 241 239 236 233 230 224 221 218 215 209 205 206 206 208 211 217 220 224 230 233 241 245 249 253 255 258 260 267 275 280 281 280 281 279 277 275 274
268 256 253 250 247 246 245 241 236 232 229 226 222 220 216 210 206 205 205 207 212 218 222 226 231 232 239 246 251 254 257 260 262 265 272 277 280 281 280 280 280 277 276
282 269 264 263 258 252 247 243 237 232 229 226 224 222 218 212 207 204 203 205 211 217 223 228 233 235 239 244 246 252 254 258 264 269 274 280 283 285 285 285 283 284 281
291 280 276 270 262 254 249 244 238 233 230 226 223 222 220 216 212 208 203 206 211 217 224 229 235 241 246 250 255 259 261 265 271 277 281 283 286 289 291 289 287 286 285
297 290 285 277 269 262 255 248 242 236 231 227 224 223 224 221 216 213 209 205 212 217 223 229 234 237 243 245 257 265 271 273 273 275 278 282 288 290 290 288 283 282 282
301 296 291 281 274 269 260 251 244 237 232 228 226 225 226 225 220 217 214 211 217 222 225 229 237 241 241 245 252 260 263 264 266 268 270 275 279 282 281 284 289 288 284
304 303 300 286 278 273 264 256 248 239 234 229 227 226 226 226 221 219 216 214 220 226 229 232 238 245 250 253 257 263 269 269 272 274 276 279 283 288 291 292 290 288 287
309 307 305 300 288 279 272 265 253 242 236 231 230 227 227 226 222 219 216 214 220 225 229 232 237 242 249 254 257 265 272 279 284 286 284 283 283 285 286 281 281 282 282
309 307 305 301 295 287 280 269 257 245 238 233 233 230 228 228 225 221 217 210 216 222 225 229 232 239 248 256 261 266 274 284 289 289 289 288 287 283 281 277 271 270 274
309 307 305 305 302 291 281 271 257 244 238 236 234 233 229 226 226 223 220 216 214 219 224 229 232 239 249 259 265 271 281 290 290 289 290 291 293 294 293 289 281 273 266
308 306 307 307 304 296 283 272 259 242 237 237 234 233 230 223 222 221 221 221 220 218 225 230 236 244 255 264 269 277 284 285 284 286 288 291 295 295 294 291 285 275 268
305 306 308 308 306 300 284 267 255 243 237 235 234 234 232 226 218 214 214 221 224 226 230 233 238 247 254 261 269 274 271 272 280 284 288 292 295 297 296 296 295 293 287
303 304 306 305 303 299 287 268 259 248 241 237 238 236 233 230 221 209 203 205 206 212 209 213 221 231 242 247 254 262 268 274 280 283 289 294 298 300 300 300 296 292 288
302 303 305 305 303 296 292 284 261 253 254 247 243 243 242 241 237 220 212 209 205 202 200 211 221 229 239 247 257 265 271 276 283 288 291 294 298 301 302 302 299 294 291
297 299 300 300 298 295 291 286 287 273 254 251 247 244 240 239 237 226 212 206 204 201 206 215 223 229 236 243 252 263 273 281 287 287 289 294 298 300 303 304 303 300 296
295 295 294 294 295 292 287 281 277 278 277 265 251 245 240 235 230 222 209 197 200 203 209 217 223 227 232 239 248 260 273 283 285 287 291 295 298 301 304 305 305 303 300
295 293 294 294 291 288 283 278 272 268 266 268 264 253 241 232 222 215 203 196 195 202 207 215 220 223 227 235 245 258 271 280 286 291 293 297 300 302 303 305 305 304 303
292 290 293 293 291 285 280 274 268 264 262 260 256 251 237 219 209 202 199 193 197 203 206 211 214 218 223 230 242 256 269 279 287 291 296 301 303 304 304 305 306 306 303
292 292 292 290 285 282 277 270 264 259 257 256 253 246 234 222 207 197 192 193 198 202 205 206 209 211 218 226 238 252 266 279 288 295 298 302 305 306 306 306 307 306 304
288 286 285 284 283 280 275 266 260 255 251 251 251 244 238 230 213 196 190 192 197 200 199 199 204 209 214 222 235 252 268 281 290 298 302 305 306 307 309 309 311 311 309
286 285 284 281 278 278 276 264 253 247 245 243 239 232 229 225 213 196 188 188 188 190 189 193 200 205 211 220 233 248 265 280 292 298 302 306 309 310 312 312 312 313 313
288 285 285 286 282 276 269 263 251 242 237 234 229 225 222 217 207 191 184 179 181 184 186 191 200 206 212 225 238 249 263 279 292 296 296 300 305 309 312 313 313 315 315
290 288 288 287 286 282 272 260 249 238 230 224 220 218 213 207 195 183 176 175 179 184 186 188 193 204 214 228 246 264 280 291 300 307 301 300 306 309 313 314 316 318 318
292 290 290 289 287 282 272 259 246 233 224 216 212 209 204 198 189 179 173 173 176 179 181 187 193 199 213 230 248 269 286 298 307 314 316 308 312 315 321 320 322 322 322
Height
1441 1439 1437 1435 1433 1431 1429 1427 1426 1424 1423 1422 1422 1423 1424 1426 1429 1432 1435 1438 1440 1442 1443 1443 1443 1443 1442 1440 1438 1436 1433 1430 1423 1415 1414 1411 1407 1403 1398 1394 1389 1384 1378
1438 1435 1432 1429 1426 1423 1421 1419 1416 1414 1413 1412 1412 1412 1413 1415 1418 1421 1424 1427 1429 1432 1433 1433 1434 1434 1432 1431 1429 1426 1424 1421 1417 1409 1404 1401 1398 1394 1389 1384 1379 1374 1369
1434 1430 1426 1423 1420 1416 1413 1410 1407 1405 1403 1401 1400 1399 1401 1403 1406 1409 1413 1416 1419 1422 1423 1424 1424 1424 1423 1422 1420 1417 1415 1412 1408 1402 1395 1392 1388 1384 1379 1373 1369 1364 1358
1429 1424 1420 1417 1412 1408 1404 1401 1397 1394 1392 1390 1389 1389 1389 1392 1395 1399 1403 1406 1409 1412 1413 1414 1414 1414 1413 1412 1410 1408 1406 1403 1399 1394 1388 1383 1378 1374 1370 1364 1357 1353 1348
1423 1418 1414 1409 1404 1400 1396 1392 1388 1385 1382 1380 1379 1378 1379 1380 1382 1387 1392 1396 1399 1402 1403 1404 1405 1404 1404 1402 1400 1398 1397 1394 1391 1386 1380 1375 1370 1366 1361 1355 1349 1343 1337
1416 1412 1407 1401 1396 1392 1387 1382 1378 1375 1372 1370 1368 1368 1368 1369 1372 1377 1382 1386 1389 1392 1393 1394 1395 1395 1394 1393 1392 1391 1390 1387 1383 1379 1373 1368 1362 1358 1353 1347 1341 1334 1325
1409 1404 1399 1393 1388 1383 1378 1373 1369 1365 1363 1360 1358 1358 1358 1360 1364 1368 1372 1376 1379 1382 1384 1385 1385 1385 1385 1383 1382 1380 1379 1377 1375 1371 1365 1359 1354 1349 1344 1337 1331 1324 1317
1402 1397 1391 1385 1379 1374 1369 1364 1360 1356 1353 1350 1349 1348 1349 1351 1355 1360 1364 1368 1370 1373 1375 1376 1376 1376 1376 1375 1373 1370 1367 1365 1363 1361 1356 1350 1345 1340 1335 1329 1322 1314 1307
1394 1388 1382 1376 1370 1364 1359 1355 1351 1347 1344 1341 1340 1339 1340 1342 1346 1351 1357 1359 1361 1364 1366 1367 1368 1368 1368 1367 1365 1362 1360 1357 1355 1352 1347 1342 1337 1332 1327 1321 1313 1307 1298
1386 1380 1374 1368 1362 1356 1351 1346 1342 1338 1335 1333 1331 1331 1331 1333 1337 1342 1348 1351 1353 1356 1358 1358 1359 1360 1359 1359 1358 1356 1352 1349 1346 1342 1337 1332 1327 1321 1317 1312 1306 1300 1292
1378 1372 1366 1360 1354 1348 1343 1338 1334 1331 1328 1325 1324 1323 1324 1326 1329 1334 1339 1342 1345 1348 1349 1350 1351 1352 1352 1351 1351 1349 1345 1343 1339 1334 1329 1324 1319 1313 1308 1303 1297 1292 1285
1371 1364 1358 1353 1347 1341 1335 1331 1327 1323 1320 1318 1317 1316 1316 1318 1321 1325 1330 1335 1338 1340 1342 1343 1344 1345 1344 1344 1343 1341 1339 1336 1332 1327 1322 1317 1312 1306 1300 1294 1288 1282 1277
1363 1357 1351 1346 1340 1334 1329 1324 1320 1317 1314 1312 1311 1310 1310 1311 1313 1317 1323 1328 1331 1334 1335 1337 1338 1338 1338 1337 1335 1334 1332 1329 1325 1321 1316 1311 1305 1299 1292 1286 1279 1274 1268
1356 1350 1345 1339 1334 1328 1323 1319 1314 1311 1308 1306 1305 1305 1305 1306 1307 1310 1315 1320 1324 1328 1330 1331 1332 1332 1331 1330 1329 1327 1325 1322 1319 1315 1310 1304 1299 1293 1287 1280 1274 1268 1262
1350 1344 1339 1333 1328 1322 1318 1313 1309 1305 1303 1301 1300 1300 1300 1300 1301 1305 1309 1313 1317 1321 1323 1325 1325 1325 1325 1324 1322 1321 1319 1316 1313 1309 1304 1299 1294 1288 1281 1275 1269 1263 1257
1344 1338 1333 1328 1323 1317 1312 1307 1303 1300 1297 1294 1294 1294 1293 1295 1298 1300 1304 1308 1312 1315 1318 1318 1319 1319 1319 1318 1317 1315 1314 1311 1308 1304 1299 1294 1289 1283 1276 1270 1264 1259 1253
1339 1333 1328 1323 1318 1313 1307 1302 1297 1294 1291 1289 1287 1287 1288 1290 1292 1296 1299 1303 1306 1309 1311 1312 1313 1313 1313 1312 1311 1310 1308 1306 1302 1299 1294 1290 1284 1278 1272 1266 1260 1254 1249
1333 1328 1323 1318 1313 1308 1303 1298 1293 1289 1286 1283 1282 1281 1282 1284 1287 1290 1295 1298 1301 1304 1305 1307 1307 1308 1308 1307 1306 1305 1303 1301 1298 1294 1290 1285 1280 1275 1268 1262 1256 1250 1245
1327 1322 1317 1312 1307 1303 1298 1293 1289 1285 1281 1279 1277 1276 1276 1278 1282 1286 1289 1292 1294 1297 1299 1301 1302 1303 1302 1302 1301 1300 1298 1296 1293 1289 1285 1281 1276 1271 1264 1258 1252 1246 1241
1320 1315 1311 1306 1302 1297 1293 1288 1284 1280 1277 1274 1272 1272 1272 1274 1277 1280 1283 1286 1289 1292 1294 1296 1297 1298 1298 1297 1297 1296 1294 1292 1289 1285 1281 1277 1272 1267 1261 1255 1249 1243 1237
1313 1308 1305 1300 1296 1291 1287 1283 1279 1275 1272 1269 1268 1267 1268 1270 1272 1275 1278 1281 1285 1287 1290 1291 1292 1293 1293 1293 1292 1291 1290 1288 1285 1282 1278 1273 1268 1263 1257 1251 1245 1239 1234
1306 1302 1298 1294 1289 1285 1281 1276 1273 1269 1266 1264 1263 1263 1263 1266 1268 1271 1274 1277 1281 1284 1286 1287 1288 1288 1289 1288 1288 1287 1286 1284 1281 1278 1274 1270 1265 1259 1253 1248 1242 1236 1230
1300 1295 1291 1287 1283 1278 1274 1270 1266 1263 1261 1259 1258 1258 1259 1261 1263 1266 1270 1273 1277 1280 1282 1283 1284 1284 1285 1284 1284 1283 1282 1280 1278 1275 1271 1266 1261 1256 1250 1244 1239 1233 1228
1293 1289 1284 1280 1275 1271 1267 1263 1259 1257 1255 1254 1253 1254 1255 1257 1259 1262 1266 1270 1273 1276 1278 1279 1280 1281 1281 1281 1280 1280 1279 1277 1275 1272 1268 1263 1258 1253 1247 1242 1236 1231 1225
1286 1281 1277 1272 1268 1264 1260 1256 1253 1251 1249 1248 1249 1250 1251 1253 1256 1259 1262 1266 1270 1272 1274 1276 1277 1277 1277 1277 1277 1277 1276 1274 1272 1269 1265 1260 1255 1250 1245 1239 1234 1228 1223
1278 1274 1270 1265 1261 1257 1253 1249 1247 1245 1244 1244 1244 1246 1247 1250 1253 1256 1260 1263 1267 1269 1271 1273 1274 1274 1274 1274 1274 1274 1273 1271 1269 1266 1262 1258 1253 1248 1242 1237 1232 1226 1221